{"data":{"norad_id":63189,"epoch":"2026-09-21T22:03:02.208384Z","epoch_age_seconds":39668,"freshness":"FRESH","line1":"1 63189U 25048G   26264.91877556  .00137006  00000+0  10494-2 0  9990","line2":"2 63189  43.0002 217.0258 0002385 276.4807  83.5789 15.70935678 89384","mean_motion":15.70935678,"eccentricity":0.0002385,"inclination_deg":43.0002,"raan_deg":217.0258,"arg_perigee_deg":276.4807,"mean_anomaly_deg":83.5789,"bstar":0.0010494,"rev_number":8938,"period_min":91.665115266419,"perigee_km":354.61546528932,"apogee_km":357.8277543462,"semimajor_km":6734.3586098178,"source":"CELESTRAK","updated_at":"2026-09-22T09:00:49.795692Z"}}